Content
SEND FEEDBACK

Daily
Averages
Monthly
Summary
United States of America

MADERA, CALIFORNIA


Home > North America > United States > California
Elevation: 253 feet     Latitude: 36 59N     Longitude: 120 06W

WEATHER
 
SELECT A DAY
Number of Records: 153,385;   Date Range: 9/2/98 - 10/23/14
 
SHARE

PRINT THIS DATA

[ ← Previous Day ]
WEATHER ALMANAC - SEPTEMBER 14, 2013
[ Next Day → ]
[ °C ]   °F
Weather ElementAverageHighLow
Temperature78.3 °F95 °F (3:53 pm)63 °F (6:53 am)
Dewpoint55.1 °F57.9 °F (4:53 am)51.1 °F (5:53 pm)
Humidity48.7 %78 % (4:53 am)23 % (3:53 pm)
Barometer29.71 in29.76 in (9:53 am)29.65 in (4:53 pm)
Wind Speed4.9 mph10.4 mph (5:53 pm)
Weather ElementAverage
Visibility10 mi
Wind DirectionSSW (197.8 °)

Weather ElementTotal
Precipitation---
Cooling Degree Days14 (Base 65)
Growing Degree Days29 (Base 50)
Averaged from 23 records on September 14, 2013
WEATHER CONDITIONS BREAKOUT
WIND DIRECTION BREAKOUT
WEATHER BY HOUR - SEPTEMBER 14, 2013
[ °C ]   °F
Local TimeTemperatureDewpointHumidityBarometerVisibilityWind DirectionWind SpeedGust SpeedPrecipitationEventsConditions
1:53 AM69.1 °F57.0 °F65 %29.71 in10.0 miCalmClear
2:53 AM70.0 °F57.0 °F63 %29.71 in10.0 miCalmClear
3:53 AM66.9 °F57.0 °F70 %29.71 in10.0 miCalmClear
4:53 AM64.9 °F57.9 °F78 %29.72 in10.0 miCalmClear
5:53 AM64.9 °F57.0 °F75 %29.73 in10.0 miCalmClear
6:53 AM63.0 °F55.0 °F75 %29.74 in10.0 miWNW (300°)3.5 mphClear
7:53 AM66.9 °F55.9 °F68 %29.75 in10.0 miCalmClear
8:53 AM73.0 °F55.9 °F55 %29.75 in10.0 miCalmClear
9:53 AM79.0 °F55.9 °F45 %29.76 in10.0 miVariable3.5 mphClear
10:53 AM82.9 °F55.0 °F38 %29.75 in10.0 miWest (280°)5.8 mphClear
11:53 AM86.0 °F55.0 °F35 %29.74 in10.0 miNW (320°)5.8 mphPartly Cloudy
12:53 PM90.0 °F53.1 °F28 %29.72 in10.0 miNW (310°)8.1 mphPartly Cloudy
1:53 PM91.9 °F53.1 °F27 %29.70 in10.0 miWNW (300°)8.1 mphScattered Clouds
2:53 PM93.0 °F52.0 °F25 %29.68 in10.0 miNW (310°)8.1 mphMostly Cloudy
3:53 PM95.0 °F52.0 °F23 %29.66 in10.0 miNW (310°)6.9 mphOvercast
4:53 PM93.9 °F52.0 °F24 %29.65 in10.0 miWNW (300°)9.2 mphMostly Cloudy
5:53 PM91.9 °F51.1 °F25 %29.65 in10.0 miWNW (300°)10.4 mphMostly Cloudy
6:53 PM86.0 °F53.1 °F32 %29.65 in10.0 miNW (310°)6.9 mphOvercast
7:53 PM80.1 °F55.0 °F42 %29.66 in10.0 miNW (310°)5.8 mphScattered Clouds
8:53 PM77.0 °F55.9 °F48 %29.68 in10.0 miNW (310°)6.9 mphPartly Cloudy
9:53 PM73.0 °F57.0 °F57 %29.69 in10.0 miWNW (290°)9.2 mphClear
10:53 PM73.0 °F57.9 °F59 %29.70 in10.0 miWNW (300°)6.9 mphClear
11:53 PM70.0 °F57.0 °F63 %29.71 in10.0 miWNW (300°)8.1 mphClear
Hourly data recorded from KMAE, located miles away from Madera, California







STORIES FROM OUR PARTNERS